QPF
0.00 0.00 0.00 0.00 0.00 0.00 0.00 0.00 0.00 0.00 0.00 0.00 0.00 0.00 0.00 0.00 0.00 0.00 0.00 0.00 0.00 0.00 0.00 0.00 0.00 0.00 0.00 0.00 0.00 0.00 0.00 0.00 0.00 0.00 0.00 0.00 0.00 0.00 0.00 0.00 0.00 0.00 0.00 0.00 0.00 0.00 0.00 0.00 0.00
0.00 0.00 0.00 0.00 0.00 0.00 0.00 0.00 0.00 0.00 0.00 0.00 0.00 0.00 0.00 0.00 0.00 0.00 0.00 0.00 0.00 0.00 0.00 0.00 0.00 0.00 0.00 0.00 0.00 0.00 0.00 0.00 0.00 0.00 0.00 0.00 0.00 0.00 0.00 0.00 0.00 0.00 0.00 0.00 0.00 0.00 0.00 0.00 0.00
0.00 0.00 0.00 0.00 0.00 0.00 0.00 0.00 0.00 0.00 0.00 0.00 0.00 0.00 0.00 0.00 0.00 0.00 0.00 0.00 0.00 0.00 0.00 0.00 0.00 0.00 0.00 0.00 0.00 0.00 0.00 0.00 0.00 0.00 0.00 0.00 0.00 0.00 0.00 0.00 0.00 0.00 0.00 0.00 0.00 0.00 0.00 0.01 0.01
0.00 0.00 0.00 0.00 0.00 0.00 0.00 0.00 0.00 0.00 0.00 0.00 0.00 0.00 0.00 0.00 0.00 0.00 0.00 0.00 0.00 0.00 0.00 0.00 0.00 0.00 0.00 0.00 0.00 0.00 0.00 0.00 0.00 0.00 0.00 0.00 0.00 0.00 0.00 0.00 0.00 0.00 0.00 0.00 0.00 0.01 0.01 0.01 0.02
0.00 0.00 0.00 0.00 0.00 0.00 0.00 0.00 0.00 0.00 0.00 0.00 0.00 0.00 0.00 0.00 0.00 0.00 0.00 0.00 0.00 0.00 0.00 0.00 0.00 0.00 0.00 0.00 0.00 0.00 0.00 0.00 0.00 0.00 0.00 0.00 0.00 0.00 0.00 0.00 0.00 0.00 0.00 0.01 0.02 0.02 0.05 0.03 0.02
0.00 0.00 0.00 0.00 0.00 0.00 0.00 0.00 0.00 0.00 0.00 0.00 0.00 0.00 0.00 0.00 0.00 0.00 0.00 0.00 0.00 0.00 0.00 0.00 0.00 0.00 0.00 0.00 0.00 0.00 0.00 0.00 0.00 0.00 0.00 0.00 0.00 0.00 0.00 0.00 0.00 0.00 0.00 0.00 0.01 0.01 0.04 0.04 0.03
0.00 0.00 0.00 0.00 0.00 0.00 0.00 0.00 0.00 0.00 0.00 0.00 0.00 0.00 0.00 0.00 0.00 0.00 0.00 0.00 0.00 0.00 0.00 0.00 0.00 0.00 0.00 0.00 0.00 0.00 0.00 0.00 0.00 0.00 0.00 0.00 0.00 0.00 0.00 0.00 0.00 0.00 0.00 0.00 0.00 0.00 0.00 0.00 0.00
0.00 0.00 0.00 0.00 0.00 0.00 0.00 0.00 0.00 0.00 0.00 0.00 0.00 0.00 0.00 0.00 0.00 0.00 0.00 0.00 0.00 0.00 0.00 0.00 0.00 0.00 0.00 0.00 0.00 0.00 0.00 0.00 0.00 0.00 0.00 0.00 0.00 0.00 0.00 0.00 0.00 0.00 0.00 0.00 0.00 0.00 0.00 0.00 0.00
0.00 0.00 0.00 0.00 0.00 0.00 0.00 0.00 0.00 0.00 0.00 0.00 0.00 0.00 0.00 0.00 0.00 0.00 0.00 0.00 0.00 0.00 0.00 0.00 0.00 0.00 0.00 0.00 0.00 0.00 0.00 0.00 0.00 0.00 0.00 0.00 0.00 0.00 0.00 0.00 0.00 0.00 0.00 0.00 0.00 0.00 0.00 0.00 0.00
0.00 0.00 0.00 0.00 0.00 0.00 0.00 0.00 0.00 0.00 0.00 0.00 0.00 0.00 0.00 0.00 0.00 0.00 0.00 0.00 0.00 0.00 0.00 0.00 0.00 0.00 0.00 0.00 0.00 0.00 0.00 0.00 0.00 0.00 0.00 0.00 0.00 0.00 0.00 0.00 0.00 0.00 0.00 0.00 0.00 0.00 0.00 0.00 0.00
0.00 0.00 0.00 0.00 0.00 0.00 0.00 0.00 0.00 0.00 0.00 0.00 0.00 0.00 0.00 0.00 0.00 0.00 0.00 0.00 0.00 0.00 0.00 0.00 0.00 0.00 0.00 0.00 0.00 0.00 0.00 0.00 0.00 0.00 0.00 0.00 0.00 0.00 0.00 0.00 0.00 0.00 0.00 0.00 0.00 0.00 0.00 0.01 0.00
0.00 0.00 0.00 0.00 0.00 0.00 0.00 0.00 0.00 0.00 0.00 0.00 0.00 0.00 0.00 0.00 0.00 0.00 0.00 0.00 0.00 0.00 0.00 0.00 0.00 0.00 0.00 0.00 0.00 0.00 0.00 0.00 0.00 0.00 0.00 0.00 0.00 0.00 0.00 0.00 0.00 0.00 0.00 0.00 0.00 0.01 0.02 0.01 0.00
0.00 0.00 0.00 0.00 0.00 0.00 0.00 0.00 0.00 0.00 0.00 0.00 0.00 0.00 0.00 0.00 0.00 0.00 0.00 0.00 0.00 0.00 0.00 0.00 0.00 0.00 0.00 0.00 0.00 0.00 0.00 0.00 0.00 0.00 0.00 0.00 0.00 0.00 0.00 0.00 0.00 0.00 0.00 0.01 0.00 0.00 0.01 0.00 0.00
0.00 0.00 0.00 0.00 0.00 0.00 0.00 0.00 0.00 0.00 0.00 0.00 0.00 0.00 0.00 0.00 0.00 0.00 0.00 0.00 0.00 0.00 0.00 0.00 0.00 0.00 0.00 0.00 0.00 0.00 0.00 0.00 0.00 0.00 0.00 0.00 0.00 0.00 0.00 0.00 0.00 0.02 0.05 0.03 0.03 0.04 0.01 0.01 0.00
0.00 0.00 0.00 0.00 0.00 0.00 0.00 0.00 0.00 0.00 0.00 0.00 0.00 0.00 0.00 0.00 0.00 0.00 0.00 0.00 0.00 0.00 0.00 0.00 0.00 0.00 0.00 0.00 0.00 0.00 0.00 0.00 0.00 0.00 0.00 0.00 0.00 0.00 0.00 0.00 0.01 0.04 0.07 0.07 0.04 0.03 0.01 0.01 0.01
0.00 0.00 0.00 0.00 0.00 0.00 0.00 0.00 0.00 0.00 0.00 0.00 0.00 0.00 0.00 0.00 0.00 0.00 0.00 0.00 0.00 0.00 0.00 0.00 0.00 0.00 0.00 0.00 0.00 0.00 0.00 0.00 0.00 0.00 0.00 0.00 0.00 0.00 0.00 0.00 0.01 0.03 0.06 0.07 0.08 0.07 0.03 0.04 0.04
0.00 0.00 0.00 0.00 0.00 0.00 0.00 0.00 0.00 0.00 0.00 0.00 0.00 0.00 0.00 0.00 0.00 0.00 0.00 0.00 0.00 0.00 0.00 0.00 0.00 0.00 0.00 0.00 0.00 0.00 0.00 0.00 0.00 0.00 0.00 0.00 0.00 0.00 0.00 0.00 0.01 0.04 0.06 0.06 0.07 0.04 0.04 0.07 0.08
0.00 0.00 0.00 0.00 0.00 0.00 0.00 0.00 0.00 0.00 0.00 0.00 0.00 0.00 0.00 0.00 0.00 0.00 0.00 0.00 0.00 0.00 0.00 0.00 0.00 0.00 0.00 0.00 0.00 0.00 0.00 0.00 0.00 0.00 0.00 0.00 0.00 0.00 0.00 0.00 0.01 0.03 0.03 0.03 0.04 0.07 0.11 0.13 0.09
0.00 0.00 0.00 0.00 0.00 0.00 0.00 0.00 0.00 0.00 0.00 0.00 0.00 0.00 0.00 0.00 0.00 0.00 0.00 0.00 0.00 0.00 0.00 0.00 0.00 0.00 0.00 0.00 0.00 0.00 0.00 0.00 0.00 0.00 0.00 0.00 0.00 0.00 0.00 0.01 0.01 0.02 0.03 0.06 0.10 0.11 0.11 0.12 0.11
0.00 0.00 0.00 0.00 0.00 0.00 0.00 0.00 0.00 0.00 0.00 0.00 0.00 0.00 0.00 0.00 0.00 0.00 0.00 0.00 0.00 0.00 0.00 0.00 0.00 0.00 0.00 0.00 0.00 0.00 0.00 0.00 0.00 0.00 0.00 0.00 0.00 0.00 0.00 0.00 0.02 0.04 0.05 0.09 0.09 0.06 0.06 0.07 0.13
0.00 0.00 0.00 0.00 0.00 0.00 0.00 0.00 0.00 0.00 0.00 0.00 0.00 0.00 0.00 0.00 0.00 0.00 0.00 0.00 0.00 0.00 0.00 0.00 0.00 0.00 0.00 0.00 0.00 0.00 0.00 0.00 0.00 0.00 0.00 0.00 0.00 0.00 0.00 0.01 0.04 0.09 0.09 0.07 0.05 0.06 0.07 0.06 0.08
0.00 0.00 0.00 0.00 0.00 0.00 0.00 0.00 0.00 0.00 0.00 0.00 0.00 0.00 0.00 0.00 0.00 0.00 0.00 0.00 0.00 0.00 0.00 0.00 0.00 0.00 0.00 0.00 0.00 0.00 0.00 0.00 0.00 0.00 0.00 0.00 0.00 0.00 0.00 0.01 0.04 0.07 0.04 0.04 0.04 0.04 0.05 0.06 0.06
0.00 0.00 0.00 0.00 0.00 0.00 0.00 0.00 0.00 0.00 0.00 0.00 0.00 0.00 0.00 0.00 0.00 0.00 0.00 0.00 0.00 0.00 0.00 0.00 0.00 0.00 0.00 0.00 0.00 0.00 0.00 0.00 0.00 0.00 0.00 0.00 0.00 0.00 0.00 0.01 0.05 0.03 0.02 0.02 0.05 0.06 0.04 0.04 0.05
0.00 0.00 0.00 0.00 0.00 0.00 0.00 0.00 0.00 0.00 0.00 0.00 0.00 0.00 0.00 0.00 0.00 0.00 0.00 0.00 0.00 0.00 0.00 0.00 0.00 0.00 0.00 0.00 0.00 0.00 0.00 0.00 0.00 0.00 0.00 0.00 0.01 0.00 0.00 0.01 0.01 0.02 0.03 0.02 0.05 0.05 0.09 0.16 0.21
0.00 0.00 0.00 0.00 0.00 0.00 0.00 0.00 0.00 0.00 0.00 0.00 0.00 0.00 0.00 0.00 0.00 0.00 0.00 0.00 0.00 0.00 0.00 0.00 0.00 0.00 0.00 0.00 0.00 0.00 0.00 0.00 0.00 0.00 0.00 0.00 0.00 0.02 0.04 0.00 0.00 0.02 0.00 0.01 0.03 0.02 0.03 0.11 0.14
0.00 0.00 0.00 0.00 0.00 0.00 0.00 0.00 0.00 0.00 0.00 0.00 0.00 0.00 0.00 0.00 0.00 0.00 0.00 0.00 0.00 0.00 0.00 0.00 0.00 0.00 0.00 0.00 0.00 0.00 0.00 0.00 0.00 0.00 0.01 0.01 0.00 0.02 0.01 0.00 0.02 0.00 0.00 0.01 0.04 0.06 0.04 0.04 0.08
0.00 0.00 0.00 0.00 0.00 0.00 0.00 0.00 0.00 0.00 0.00 0.00 0.00 0.00 0.00 0.00 0.00 0.00 0.00 0.00 0.00 0.00 0.00 0.00 0.00 0.00 0.00 0.00 0.00 0.00 0.00 0.00 0.00 0.00 0.00 0.00 0.00 0.00 0.00 0.01 0.01 0.00 0.02 0.03 0.11 0.12 0.05 0.04 0.03
0.00 0.00 0.00 0.00 0.00 0.00 0.00 0.00 0.00 0.00 0.00 0.00 0.00 0.00 0.00 0.00 0.00 0.00 0.00 0.00 0.00 0.00 0.00 0.00 0.00 0.00 0.00 0.00 0.00 0.00 0.00 0.00 0.00 0.00 0.00 0.00 0.00 0.00 0.00 0.01 0.01 0.00 0.01 0.04 0.07 0.06 0.03 0.02 0.01
0.00 0.00 0.00 0.00 0.00 0.00 0.00 0.00 0.00 0.00 0.00 0.00 0.00 0.00 0.00 0.00 0.00 0.00 0.00 0.00 0.00 0.00 0.00 0.00 0.00 0.00 0.00 0.00 0.00 0.00 0.00 0.00 0.00 0.01 0.00 0.00 0.00 0.00 0.00 0.00 0.00 0.00 0.01 0.05 0.07 0.07 0.02 0.01 0.02
0.00 0.00 0.00 0.00 0.00 0.00 0.00 0.00 0.00 0.00 0.00 0.00 0.00 0.00 0.00 0.00 0.00 0.00 0.00 0.00 0.00 0.00 0.00 0.00 0.00 0.00 0.00 0.00 0.00 0.00 0.00 0.01 0.03 0.03 0.00 0.00 0.00 0.00 0.00 0.00 0.00 0.00 0.01 0.03 0.07 0.02 0.00 0.00 0.00
MSLP
1010.82 1010.59 1010.51 1009.65 1008.44 1005.95 1003.35 1001.07 999.31 998.75 998.37 998.33 998.75 998.98 999.32 999.48 999.35 1000.40 1001.50 1002.20 1003.17 1004.75 1006.05 1007.02 1007.49 1007.93 1008.50 1009.14 1009.62 1010.19 1010.52 1011.00 1011.35 1011.65 1012.17 1012.46 1012.62 1012.91 1013.20 1013.23 1013.33 1013.40 1013.58 1013.67 1013.64 1013.73 1013.76 1013.72 1013.78
1010.06 1009.88 1009.54 1008.07 1006.61 1004.04 1001.55 1000.06 999.04 999.89 998.92 998.92 998.92 998.85 998.96 999.31 999.66 1000.71 1001.71 1002.40 1003.11 1004.70 1005.91 1006.61 1007.33 1007.87 1008.41 1008.98 1009.61 1010.07 1010.45 1010.79 1011.24 1011.60 1012.05 1012.41 1012.64 1012.83 1013.08 1013.26 1013.27 1013.30 1013.43 1013.49 1013.48 1013.57 1013.60 1013.62 1013.62
1010.15 1009.19 1008.31 1006.61 1004.91 1002.94 1001.19 1000.62 1000.56 1000.46 1000.14 999.02 998.90 998.99 999.07 999.45 1000.08 1000.91 1001.98 1002.50 1003.26 1004.60 1005.71 1006.25 1007.11 1007.72 1008.20 1008.79 1009.35 1009.87 1010.22 1010.62 1010.97 1011.39 1011.85 1012.19 1012.44 1012.65 1012.81 1013.06 1013.15 1013.12 1013.15 1013.19 1013.17 1013.27 1013.38 1013.42 1013.50
1009.74 1008.83 1007.90 1005.87 1003.69 1001.46 1000.16 999.97 999.33 1001.23 998.88 998.98 998.94 999.16 999.12 999.58 1000.23 1001.09 1001.90 1002.27 1003.10 1004.47 1005.49 1006.24 1007.05 1007.54 1008.00 1008.59 1009.14 1009.56 1009.97 1010.34 1010.69 1011.14 1011.58 1011.90 1012.14 1012.37 1012.53 1012.77 1012.93 1013.00 1012.96 1012.93 1012.96 1012.99 1013.09 1013.21 1013.33
1009.17 1007.61 1006.41 1004.49 1002.77 1001.21 1000.02 999.21 999.68 999.17 999.09 998.47 998.27 998.96 999.70 1000.50 1000.91 1001.48 1002.07 1002.34 1002.99 1004.13 1005.45 1006.97 1007.35 1007.61 1008.02 1008.41 1008.83 1009.35 1009.77 1010.25 1010.52 1010.91 1011.39 1011.65 1011.93 1012.20 1012.35 1012.51 1012.65 1012.68 1012.69 1012.67 1012.76 1012.78 1012.96 1013.06 1013.16
1008.62 1007.43 1006.00 1004.03 1002.09 1000.41 999.21 998.30 998.24 998.40 998.35 998.23 998.24 998.59 999.68 1000.25 1000.93 1001.22 1001.61 1001.88 1002.22 1002.98 1004.19 1005.82 1007.19 1008.11 1008.30 1008.42 1008.67 1009.08 1009.48 1010.03 1010.35 1010.73 1011.11 1011.36 1011.69 1011.97 1012.13 1012.21 1012.34 1012.38 1012.41 1012.42 1012.49 1012.62 1012.74 1012.82 1012.88
1007.77 1006.62 1005.25 1003.68 1001.72 999.93 998.60 998.06 998.19 998.47 998.44 998.35 998.70 999.31 999.56 1000.15 1000.56 1000.91 1001.17 1001.07 1001.25 1001.67 1003.15 1004.82 1005.94 1007.06 1008.11 1008.46 1008.56 1008.86 1009.26 1009.72 1010.03 1010.47 1010.81 1011.05 1011.43 1011.65 1011.79 1011.85 1011.98 1012.10 1012.23 1012.29 1012.33 1012.47 1012.53 1012.59 1012.75
1007.85 1006.74 1004.83 1003.54 1001.98 1000.27 999.12 998.67 998.44 998.88 998.63 998.64 999.14 999.25 999.50 999.76 999.81 1000.20 1000.77 1000.77 1000.70 1000.78 1001.84 1003.48 1004.68 1005.92 1007.04 1008.05 1008.45 1008.73 1009.01 1009.46 1009.79 1010.23 1010.57 1010.81 1011.20 1011.36 1011.28 1011.37 1011.62 1011.67 1011.91 1012.01 1012.12 1012.23 1012.28 1012.34 1012.46
1007.11 1006.34 1004.25 1003.08 1001.93 1000.79 999.76 999.02 998.55 998.67 998.94 999.31 999.12 999.45 999.63 999.51 999.69 999.73 1000.14 1000.26 1000.16 1000.29 1001.22 1002.23 1003.65 1004.92 1005.67 1006.68 1007.73 1008.39 1008.69 1009.14 1009.57 1009.84 1010.13 1010.52 1010.79 1010.70 1010.57 1010.70 1011.06 1011.29 1011.46 1011.60 1011.74 1011.86 1011.95 1012.04 1012.14
1006.31 1005.04 1003.49 1002.55 1001.60 1000.67 999.81 999.29 998.95 998.97 999.34 999.74 999.94 999.68 999.06 999.09 999.34 999.52 999.66 999.81 999.75 999.84 1000.19 1000.86 1002.32 1003.36 1004.56 1005.27 1006.36 1007.42 1007.88 1008.29 1008.86 1009.25 1009.43 1009.89 1010.07 1010.06 1010.10 1010.48 1010.73 1010.77 1010.92 1011.21 1011.41 1011.45 1011.52 1011.65 1011.58
1005.24 1003.53 1003.37 1002.22 1001.20 1000.64 999.88 999.18 999.27 999.14 998.78 998.78 998.92 998.82 998.95 998.96 999.48 999.84 999.83 999.60 999.34 999.45 999.42 999.75 1001.20 1002.25 1003.26 1004.31 1005.48 1006.45 1006.99 1007.51 1008.02 1008.47 1008.75 1009.14 1009.27 1009.53 1009.64 1009.83 1009.93 1010.31 1010.62 1010.79 1010.85 1011.05 1011.27 1011.18 1011.05
1004.12 1002.94 1002.70 1001.83 1001.13 1000.64 999.79 999.42 999.07 999.04 998.74 998.59 998.61 998.68 998.86 998.90 999.34 999.98 999.53 999.19 999.23 999.24 999.32 999.31 1000.43 1001.55 1002.35 1003.31 1004.35 1005.59 1006.06 1006.61 1007.01 1007.42 1007.92 1008.53 1008.87 1009.18 1009.42 1009.51 1009.34 1009.84 1009.93 1010.33 1010.20 1010.56 1010.58 1010.68 1010.54
1002.49 1001.98 1001.73 1001.03 1000.54 1000.07 999.76 999.14 998.93 998.70 998.79 998.41 998.44 998.44 998.41 998.64 998.78 999.22 999.03 998.65 998.72 998.98 998.98 999.24 1000.38 1001.12 1001.82 1002.42 1003.44 1004.43 1004.82 1005.46 1005.90 1006.29 1006.99 1007.69 1008.36 1008.74 1008.92 1009.04 1009.04 1009.20 1009.50 1009.70 1009.86 1009.99 1010.15 1010.35 1010.37
1001.88 1001.23 1000.78 1000.24 999.85 999.49 999.13 998.68 998.91 998.46 998.45 997.94 997.88 997.86 998.04 998.21 998.11 998.19 998.37 998.06 998.21 998.48 998.67 998.81 999.96 1000.55 1001.29 1001.93 1002.53 1003.45 1004.04 1004.69 1005.33 1005.70 1006.18 1006.95 1007.53 1008.17 1008.40 1008.61 1008.81 1009.10 1009.27 1009.48 1009.73 1009.87 1009.87 1009.99 1010.12
1001.78 1000.82 1000.10 999.29 999.47 998.62 999.22 997.70 997.66 998.08 997.95 997.64 997.65 997.45 997.34 997.35 997.36 997.29 997.33 997.36 997.72 998.14 998.36 998.59 999.29 1000.22 1000.84 1001.46 1002.15 1003.01 1003.63 1004.18 1004.82 1005.31 1005.77 1006.54 1007.06 1007.62 1008.07 1008.43 1008.57 1008.85 1009.13 1009.28 1009.46 1009.67 1009.93 1010.01 1009.94
1001.45 1001.01 999.20 998.34 999.12 997.46 999.31 997.02 997.13 997.58 997.39 997.03 997.05 996.89 996.69 996.64 996.33 996.37 996.50 996.87 997.25 997.69 998.13 998.40 998.55 999.86 1000.63 1001.24 1001.99 1002.82 1003.50 1004.14 1004.74 1005.13 1005.62 1006.14 1006.63 1007.04 1007.65 1008.07 1008.26 1008.48 1008.85 1009.15 1009.33 1009.52 1009.71 1009.84 1009.80
1001.16 999.54 998.76 997.08 998.62 998.18 997.99 996.90 995.86 996.53 996.52 996.09 996.29 996.24 996.04 995.81 995.83 995.93 996.09 996.45 996.90 997.19 997.55 998.15 998.59 999.31 1000.32 1001.24 1002.05 1002.78 1003.42 1004.04 1004.58 1005.10 1005.59 1005.96 1006.38 1006.79 1007.21 1007.50 1007.81 1008.06 1008.63 1008.86 1009.06 1009.18 1009.28 1009.51 1009.62
999.58 999.78 997.90 997.30 997.78 997.13 996.45 996.04 995.32 995.37 995.29 994.96 994.94 994.95 995.13 995.27 995.39 995.20 995.36 995.82 996.17 996.63 996.92 997.48 998.15 998.96 1000.09 1001.08 1001.99 1002.69 1003.33 1003.91 1004.47 1004.85 1005.24 1005.66 1006.00 1006.28 1006.63 1007.16 1007.52 1007.95 1008.32 1008.52 1008.70 1008.89 1008.99 1009.16 1009.31
1000.01 998.75 997.47 997.12 997.18 996.68 995.96 995.70 995.19 994.61 994.47 994.28 994.22 994.29 994.45 994.72 994.84 994.81 994.99 995.25 995.58 996.00 996.43 997.18 997.92 998.89 999.80 1000.78 1001.63 1002.48 1003.16 1003.87 1004.40 1004.67 1005.07 1005.52 1005.87 1006.20 1006.49 1006.88 1007.32 1007.78 1008.09 1008.31 1008.37 1008.53 1008.76 1008.89 1008.97
999.97 998.71 997.44 996.82 996.71 996.40 995.60 995.08 994.70 994.25 993.93 994.00 993.84 993.82 994.05 994.22 994.33 994.34 994.37 994.71 995.26 995.71 996.37 997.42 998.15 998.97 999.71 1000.48 1001.45 1002.20 1002.98 1003.62 1004.21 1004.52 1004.96 1005.38 1005.79 1006.02 1006.22 1006.59 1007.16 1007.62 1007.89 1008.05 1008.01 1008.25 1008.49 1008.61 1008.76
998.76 998.10 997.85 997.23 997.25 996.46 996.05 994.90 994.26 993.91 993.67 993.51 993.35 993.40 993.43 993.49 993.59 993.71 994.02 994.41 995.08 995.71 996.65 997.69 998.60 999.24 999.79 1000.46 1001.45 1002.13 1002.71 1003.32 1003.93 1004.41 1004.87 1005.16 1005.55 1005.88 1006.09 1006.52 1007.02 1007.40 1007.60 1007.71 1007.73 1007.95 1008.16 1008.47 1008.56
997.68 997.87 997.71 997.35 997.13 996.05 996.20 994.08 993.23 993.38 992.78 992.47 992.20 992.14 992.02 992.01 992.18 992.57 993.18 993.81 994.89 995.99 997.03 998.06 998.87 999.52 1000.00 1000.64 1001.53 1002.12 1002.78 1003.27 1003.85 1004.27 1004.80 1005.05 1005.47 1005.89 1006.22 1006.56 1006.89 1007.05 1007.22 1007.30 1007.45 1007.57 1007.83 1008.09 1008.25
996.29 998.01 997.25 996.90 996.55 996.33 995.73 994.99 992.75 993.23 992.33 991.84 991.30 990.76 990.57 990.60 991.16 991.75 992.54 993.64 995.04 996.34 997.34 998.33 999.27 999.94 1000.36 1000.93 1001.54 1002.35 1003.02 1003.52 1003.79 1004.07 1004.64 1004.99 1005.54 1005.97 1006.24 1006.45 1006.70 1006.92 1007.03 1007.12 1007.31 1007.42 1007.51 1007.65 1007.94
997.62 997.71 997.35 996.92 996.22 995.06 994.29 994.39 992.37 992.16 991.85 990.91 990.03 989.73 989.95 989.80 990.20 991.00 992.46 994.21 995.66 996.63 997.66 998.81 999.72 1000.21 1000.74 1001.33 1001.98 1002.62 1003.09 1003.31 1003.84 1004.18 1004.71 1005.11 1005.62 1005.94 1006.18 1006.32 1006.48 1006.69 1006.89 1006.91 1007.02 1007.11 1007.18 1007.26 1007.56
997.18 996.97 996.37 996.13 995.20 993.04 993.93 993.26 991.55 991.41 990.75 989.93 989.46 989.44 989.67 990.18 990.58 992.04 993.48 994.92 995.99 997.06 998.24 999.36 1000.01 1000.73 1001.22 1001.76 1002.38 1002.91 1003.17 1003.60 1003.97 1004.40 1004.66 1005.14 1005.60 1005.99 1006.26 1006.15 1006.30 1006.65 1006.70 1006.81 1006.88 1006.85 1006.91 1006.93 1007.00
996.23 995.64 994.70 994.04 993.81 993.39 993.23 991.78 990.25 990.02 989.49 988.99 989.23 989.54 989.69 990.51 991.76 993.06 994.32 995.35 996.28 997.53 998.76 999.57 1000.44 1001.07 1001.63 1002.16 1002.62 1003.06 1003.52 1003.88 1004.01 1004.34 1004.73 1005.09 1005.45 1005.93 1006.21 1006.17 1006.48 1006.49 1006.64 1006.70 1006.71 1006.87 1006.86 1006.83 1006.87
995.15 995.17 994.56 994.20 993.55 992.83 990.84 989.65 989.24 988.84 988.30 988.11 988.59 989.21 990.07 991.04 992.18 993.54 994.83 995.69 996.74 998.01 998.98 999.89 1000.58 1001.25 1001.81 1002.31 1002.77 1003.20 1003.54 1003.86 1004.24 1004.47 1004.79 1005.15 1005.47 1005.73 1005.99 1006.19 1006.37 1006.45 1006.46 1006.59 1006.67 1006.76 1006.83 1006.80 1006.79
995.22 994.70 994.11 993.07 992.56 991.46 990.54 988.86 988.04 987.78 987.70 987.85 988.40 988.81 990.29 991.54 992.71 993.95 995.16 996.17 997.32 998.28 999.17 1000.00 1000.68 1001.28 1001.80 1002.33 1002.79 1003.23 1003.42 1003.99 1004.47 1004.70 1005.00 1005.16 1005.39 1005.48 1005.79 1006.19 1006.24 1006.29 1006.23 1006.27 1006.56 1006.66 1006.68 1006.79 1006.77
994.53 993.47 993.01 992.94 992.42 991.24 989.79 988.06 987.23 987.52 987.57 987.89 987.97 988.71 990.28 991.68 993.11 994.42 995.48 996.61 997.61 998.54 999.40 1000.06 1000.66 1001.23 1001.80 1002.25 1002.71 1003.20 1003.58 1004.17 1004.50 1004.80 1004.97 1005.37 1005.52 1005.65 1005.84 1005.91 1005.88 1005.95 1006.07 1006.20 1006.28 1006.39 1006.41 1006.56 1006.75
994.12 992.72 992.38 991.24 991.15 991.07 989.87 988.04 987.40 987.62 987.70 988.00 987.77 989.16 990.60 991.87 993.27 994.60 995.75 996.82 997.78 998.69 999.53 1000.08 1000.64 1001.18 1001.66 1002.11 1002.79 1003.34 1003.75 1004.13 1004.73 1005.00 1005.13 1005.35 1005.62 1005.68 1005.64 1005.69 1005.59 1005.88 1006.15 1006.35 1006.43 1006.50 1006.25 1006.32 1006.59
Thickness
5793 5796 5796 5794 5767 5782 5786 5812 5853 5845 5846 5862 5863 5849 5839 5844 5830 5799 5855 5858 5849 5834 5819 5808 5802 5794 5786 5777 5772 5766 5764 5757 5752 5748 5741 5737 5735 5730 5724 5723 5721 5721 5719 5718 5719 5717 5718 5718 5719
5796 5797 5793 5790 5766 5773 5798 5837 5841 5827 5839 5855 5858 5853 5842 5831 5852 5842 5840 5849 5842 5829 5815 5808 5800 5791 5784 5776 5769 5765 5761 5756 5750 5744 5738 5732 5728 5725 5721 5718 5718 5716 5714 5713 5714 5713 5711 5713 5714
5791 5798 5780 5778 5778 5776 5791 5819 5818 5828 5838 5848 5845 5855 5843 5831 5844 5846 5851 5845 5836 5825 5814 5807 5798 5789 5782 5773 5767 5762 5758 5753 5748 5741 5734 5728 5724 5721 5718 5714 5713 5713 5712 5710 5711 5709 5707 5707 5707
5783 5783 5782 5765 5773 5812 5823 5831 5839 5813 5850 5851 5847 5830 5852 5855 5845 5848 5851 5845 5831 5823 5814 5804 5794 5785 5778 5771 5764 5759 5754 5749 5745 5737 5731 5726 5722 5719 5715 5711 5707 5706 5706 5707 5706 5704 5703 5703 5703
5781 5781 5760 5771 5787 5813 5832 5843 5834 5826 5837 5847 5852 5826 5827 5839 5844 5845 5842 5840 5826 5818 5812 5794 5786 5780 5773 5768 5763 5757 5752 5746 5741 5734 5727 5723 5720 5715 5710 5706 5703 5701 5700 5700 5699 5700 5697 5697 5697
5757 5769 5748 5757 5787 5819 5840 5857 5847 5840 5845 5850 5846 5836 5827 5841 5830 5835 5838 5835 5831 5817 5814 5804 5783 5772 5768 5766 5762 5757 5752 5745 5739 5732 5726 5721 5716 5710 5705 5702 5698 5696 5694 5693 5693 5692 5691 5692 5693
5755 5754 5751 5768 5786 5808 5836 5856 5839 5831 5834 5839 5841 5819 5831 5833 5835 5835 5840 5839 5835 5828 5810 5806 5793 5779 5768 5763 5760 5755 5750 5743 5738 5731 5725 5721 5713 5709 5703 5700 5695 5693 5690 5688 5687 5686 5685 5685 5685
5754 5750 5752 5767 5772 5787 5828 5834 5840 5827 5825 5854 5842 5812 5812 5837 5846 5839 5837 5838 5842 5839 5818 5803 5806 5786 5773 5762 5757 5752 5748 5741 5736 5729 5723 5718 5711 5706 5702 5700 5693 5691 5688 5686 5683 5682 5681 5680 5680
5763 5731 5737 5758 5770 5787 5820 5815 5836 5841 5824 5826 5836 5825 5833 5842 5845 5835 5824 5825 5834 5834 5822 5810 5801 5795 5781 5770 5759 5750 5746 5739 5733 5727 5721 5715 5708 5705 5704 5701 5695 5691 5687 5684 5682 5679 5677 5676 5676
5740 5733 5748 5779 5789 5790 5808 5812 5819 5815 5808 5805 5810 5826 5841 5838 5833 5824 5819 5818 5823 5829 5829 5814 5804 5802 5790 5777 5766 5753 5748 5742 5734 5728 5723 5715 5709 5706 5700 5696 5693 5690 5687 5682 5679 5677 5675 5673 5673
5742 5738 5761 5775 5790 5799 5798 5805 5813 5804 5797 5813 5805 5815 5829 5827 5821 5814 5816 5820 5823 5831 5829 5828 5805 5804 5795 5782 5770 5758 5751 5744 5736 5729 5723 5717 5711 5706 5702 5696 5693 5689 5684 5679 5676 5673 5671 5670 5671
5730 5755 5761 5772 5783 5785 5787 5801 5795 5799 5803 5821 5822 5822 5821 5816 5810 5808 5811 5816 5820 5825 5827 5823 5810 5804 5795 5786 5773 5763 5756 5749 5741 5734 5725 5717 5711 5704 5698 5694 5689 5685 5683 5677 5675 5671 5669 5667 5668
5740 5754 5762 5774 5779 5783 5790 5785 5788 5791 5809 5818 5820 5818 5813 5811 5810 5811 5816 5818 5823 5819 5819 5822 5808 5802 5795 5784 5774 5765 5760 5754 5747 5740 5731 5720 5710 5703 5698 5694 5690 5684 5677 5674 5672 5669 5667 5665 5663
5752 5754 5757 5769 5772 5779 5774 5777 5783 5792 5805 5809 5809 5805 5807 5805 5808 5807 5811 5813 5816 5817 5815 5816 5805 5803 5795 5783 5774 5765 5759 5752 5746 5738 5730 5722 5713 5703 5696 5691 5687 5681 5676 5671 5667 5665 5663 5661 5660
5740 5733 5749 5759 5766 5767 5777 5763 5767 5792 5799 5792 5793 5797 5801 5804 5808 5806 5813 5812 5811 5812 5815 5811 5806 5800 5793 5783 5774 5765 5758 5750 5742 5736 5727 5718 5712 5703 5694 5687 5681 5677 5671 5668 5663 5660 5658 5654 5656
5719 5723 5717 5755 5760 5782 5764 5734 5775 5791 5786 5781 5786 5790 5794 5801 5807 5813 5814 5810 5809 5810 5809 5807 5807 5796 5788 5779 5771 5761 5755 5747 5738 5733 5723 5716 5708 5701 5692 5684 5678 5672 5666 5663 5659 5655 5652 5650 5651
5705 5699 5716 5752 5763 5758 5756 5744 5783 5790 5783 5779 5782 5784 5790 5798 5804 5806 5809 5808 5805 5806 5807 5802 5800 5790 5783 5773 5765 5757 5750 5743 5735 5727 5720 5713 5706 5698 5691 5684 5677 5669 5662 5658 5654 5650 5648 5645 5643
5697 5702 5729 5727 5751 5761 5754 5753 5775 5787 5784 5784 5787 5790 5791 5792 5794 5802 5802 5805 5806 5803 5803 5801 5795 5786 5779 5768 5759 5752 5744 5739 5732 5723 5716 5709 5702 5694 5688 5679 5672 5664 5656 5651 5648 5644 5642 5639 5637
5711 5717 5718 5734 5754 5752 5748 5750 5764 5783 5782 5782 5786 5786 5786 5785 5792 5799 5802 5803 5799 5797 5796 5794 5787 5779 5772 5761 5753 5744 5736 5731 5723 5719 5713 5705 5697 5687 5680 5672 5665 5656 5648 5642 5639 5636 5633 5631 5632
5696 5699 5709 5735 5749 5750 5746 5744 5762 5775 5777 5778 5780 5778 5778 5781 5786 5792 5795 5794 5789 5790 5787 5783 5778 5771 5766 5761 5751 5743 5734 5727 5720 5715 5707 5701 5692 5683 5676 5669 5658 5648 5641 5636 5633 5629 5625 5625 5625
5695 5696 5705 5710 5729 5741 5733 5729 5748 5769 5774 5779 5778 5776 5781 5777 5776 5782 5784 5785 5783 5783 5779 5773 5768 5763 5761 5756 5746 5738 5731 5722 5715 5707 5699 5695 5688 5679 5672 5662 5651 5642 5637 5632 5629 5625 5621 5616 5619
5682 5711 5712 5711 5707 5696 5732 5702 5747 5756 5762 5768 5775 5776 5781 5783 5785 5786 5783 5782 5777 5776 5772 5767 5762 5757 5754 5749 5738 5729 5720 5711 5707 5700 5694 5687 5683 5674 5665 5656 5648 5643 5638 5632 5626 5621 5617 5614 5613
5699 5705 5707 5711 5705 5706 5711 5703 5738 5750 5747 5760 5772 5782 5784 5787 5785 5783 5784 5777 5774 5769 5765 5760 5754 5749 5746 5739 5733 5724 5714 5708 5704 5698 5690 5682 5673 5666 5659 5654 5648 5643 5638 5632 5626 5620 5616 5615 5613
5694 5686 5694 5703 5706 5685 5720 5710 5725 5743 5746 5763 5780 5786 5786 5791 5791 5789 5781 5771 5766 5764 5758 5751 5744 5740 5737 5731 5723 5716 5709 5704 5696 5690 5682 5676 5668 5662 5657 5653 5648 5643 5638 5634 5629 5624 5619 5616 5614
5674 5673 5663 5660 5672 5691 5728 5712 5733 5754 5765 5773 5777 5781 5785 5783 5783 5773 5767 5762 5758 5754 5748 5741 5737 5729 5727 5722 5715 5710 5703 5696 5690 5684 5679 5669 5663 5657 5653 5652 5648 5642 5640 5636 5631 5627 5623 5621 5621
5661 5674 5671 5653 5671 5694 5724 5706 5740 5768 5778 5786 5783 5782 5785 5781 5775 5766 5761 5757 5754 5747 5739 5735 5727 5721 5717 5713 5709 5704 5696 5690 5688 5680 5674 5667 5662 5656 5652 5650 5646 5643 5640 5638 5635 5630 5627 5626 5625
5662 5654 5700 5689 5708 5699 5735 5752 5764 5775 5780 5784 5781 5781 5774 5773 5769 5762 5756 5753 5748 5740 5734 5727 5721 5715 5712 5708 5703 5697 5692 5687 5681 5676 5671 5665 5660 5657 5653 5649 5646 5644 5642 5640 5636 5632 5629 5629 5628
5652 5685 5667 5689 5670 5685 5718 5742 5743 5764 5771 5779 5777 5779 5771 5768 5763 5757 5751 5747 5741 5736 5729 5723 5718 5712 5708 5704 5699 5693 5689 5683 5676 5672 5666 5663 5660 5658 5654 5647 5646 5645 5645 5644 5639 5634 5632 5628 5629
5646 5657 5678 5698 5699 5691 5703 5740 5778 5768 5772 5774 5780 5780 5773 5765 5757 5751 5747 5742 5737 5731 5724 5718 5714 5709 5704 5701 5697 5690 5685 5678 5673 5668 5665 5659 5658 5654 5651 5649 5649 5648 5647 5646 5642 5638 5637 5632 5630
5658 5670 5680 5681 5681 5704 5718 5737 5775 5775 5778 5779 5782 5775 5772 5765 5756 5749 5743 5737 5731 5724 5718 5714 5710 5706 5702 5700 5692 5685 5682 5676 5669 5665 5662 5659 5655 5653 5652 5652 5652 5651 5648 5646 5642 5640 5640 5638 5634